Regional Weather Roundup
Issued by NWS Bismarck, ND

Home | Current Version | Previous Version | Text Only | Print | Product List | Glossary On
Versions: 1 2 3 4 5 6 7 8 9 10 11 12 13 14 15 16 17 18 19 20 21 22 23 24 25 26 27 28 29 30 31 32 33 34 35 36 37 38 39 40 41 42 43 44 45 46 47 48 49 50
646
ASUS43 KBIS 141610
RWRBIS

NWR BROADCAST TEXT
NATIONAL WEATHER SERVICE BISMARCK ND
1000 AM CST SUN FEB 14 2016

NOTE: "FAIR" INDICATES FEW OR NO CLOUDS BELOW 12,000 FEET WITH NO
SIGNIFICANT WEATHER AND/OR OBSTRUCTIONS TO VISIBILITY.


CITY           SKY/WX    TMP DP  RH WIND       PRES   REMARKS
WILLISTON      CLOUDY    25  20  81 W6        29.72F WCI  18
MINOT          CLOUDY    30  23  75 W12       29.69S
MINOT AFB      CLOUDY    29  29  99 CALM      29.69S
BISMARCK       CLOUDY    33  27  78 W5        29.74S
DICKINSON      MOSUNNY   32  26  78 W14       29.70S
GARRISON         N/A     30  27  88 W5        29.70S
HETTINGER ARPT CLOUDY    32  26  78 W13       29.75S
JAMESTOWN      CLOUDY    16  14  92 S12       29.72F WCI   3
BEACH          FAIR      34  28  80 W15       29.77R
CARRINGTON     MIX PCPN  23  23 100 W12       29.71S WCI  12
LINTON         CLOUDY    27  27 100 W7        29.76F FOG     WCI  19
OAKES          CLOUDY    16  14  93 S16       29.79F WCI   0
TIOGA          CLOUDY    28  28 100 NW9       29.74S WCI  20
$$

CITY           SKY/WX    TMP DP  RH WIND       PRES   REMARKS
GRAND FORKS    LGT SNOW  15  10  80 S21       29.80F VSB 1   WCI  -2
GRAND FORKS AF CLOUDY    14  10  82 S18       29.78F HAZE    WCI  -3
DEVILS LAKE    FLURRIES  16  14  92 S8        29.69F WCI   5
FARGO          LGT SNOW  15  10  80 S20G28    29.84F WCI  -2
GWINNER        CLOUDY    18  14  86 S16       29.81F WCI   3
ROLLA          CLOUDY    14  12  92 SW6       29.67S WCI   5
WALHALLA         N/A     14  14 100 S10       29.75F WCI   1
$$

CITY           SKY/WX    TMP DP  RH WIND       PRES   REMARKS
ABERDEEN       CLOUDY    18  13  80 S15       29.81F HAZE    WCI   4
MOBRIDGE       CLOUDY    28  25  88 CALM      29.73F
BUFFALO          N/A     37  27  67 W14       29.70F
RAPID CITY     CLOUDY    36  27  69 W3        29.81S
GLASGOW        CLOUDY    34  27  75 SW5       29.71F
SIDNEY         CLOUDY    34  27  75 W7        29.73F
WOLF POINT     CLOUDY    33  28  81 SW10      29.74S
GLENDIVE       CLOUDY    39  28  65 W12       29.76S
MILES CITY     CLOUDY    35  32  88 SW12      29.79F
BAKER          CLOUDY    35  27  72 W15       29.77S
$$

CITY           SKY/WX    TMP DP  RH WIND       PRES   REMARKS
BILLINGS       CLOUDY    37  26  64 SW13      29.81S
GREAT FALLS    SUNNY     40  24  53 SW13      29.81R
REGINA         PTSUNNY   21  21 100 SW3       29.66S
ESTEVAN        CLOUDY    28  27  93 W14       29.69S WCI  17
$$





USA.gov is the U.S. government's official web portal to all federal, state and local government web resources and services.